Weather History for KORB - October, 2012

Change the Weather History Date:

Thursday, October 11, 2012

  Actual Average Record
Temperature  
Mean Temperature 36 °F -  
Max Temperature 41 °F 51 °F 75 °F (2004)
Min Temperature 30 °F 33 °F 23 °F (1999)
Degree Days  
Heating Degree Days 30    
Moisture  
Dew Point 27 °F    
Average Humidity 76    
Maximum Humidity 93    
Minimum Humidity 53    
Precipitation  
Precipitation 0.00 in - - ()
Sea Level Pressure  
Sea Level Pressure 30.05 in    
Wind  
Wind Speed 6 mph (WNW)    
Max Wind Speed 15 mph    
Max Gust Speed 23 mph    
Visibility 10 miles    
Events Snow    
Averages and records for this station are not official NWS values.
T = Trace of Precipitation, MM = Missing Value Source: NWS Daily Summary

Daily Weather History Graph

Daily Weather History Graph

Search for Another Location

Airport or City:

Trip Planner

Search our weather history database for the weather conditions in past years. The results will help you decide how hot, cold, wet, or windy it might be!

Date:

Astronomy

Oct. 11, 2012 Rise Set
Actual Time 7:25 AM CDT 6:29 PM CDT
Civil Twilight 6:54 AM CDT 7:00 PM CDT
Nautical Twilight 6:18 AM CDT 7:36 PM CDT
Astronomical Twilight 5:42 AM CDT 8:12 PM CDT
Moon 2:47 AM CDT (10/11) 4:20 PM CDT (10/11)
Length of Visible Light 12h 06m
Length of Day
11h 03m
Waning Crescent, 18% of the Moon is Illuminated
Oct 11
Waning Crescent
Oct 15
New
Oct 21
First Quarter
Oct 29
Full
Nov 6
Last Quarter

Hourly Weather History & Observations

Time (CDT) Temp. Windchill Dew Point Humidity Pressure Visibility Wind Dir Wind Speed Gust Speed Precip Events Conditions
12:13 AM 32.0 °F - 30.2 °F 93% 29.88 in 7.0 mi Calm Calm - N/A Snow Light Snow
12:33 AM 32.0 °F - 30.2 °F 93% 29.87 in 5.0 mi Calm Calm - N/A Snow Light Snow
12:53 AM 32.0 °F - 30.2 °F 93% 29.87 in 5.0 mi Calm Calm - N/A   Overcast
1:13 AM 32.0 °F - 30.2 °F 93% 29.87 in 7.0 mi Calm Calm - N/A   Overcast
1:33 AM 32.0 °F - 30.2 °F 93% 29.87 in 7.0 mi Calm Calm - N/A   Overcast
1:53 AM 32.0 °F - 30.2 °F 93% 29.87 in 7.0 mi Calm Calm - N/A   Overcast
2:33 AM 32.0 °F - 30.2 °F 93% 29.87 in 10.0 mi Calm Calm - N/A   Mostly Cloudy
2:53 AM 32.0 °F 28.7 °F 30.2 °F 93% 29.87 in 10.0 mi West 3.5 mph - N/A   Mostly Cloudy
3:13 AM 33.8 °F 30.8 °F 30.2 °F 87% 29.87 in 10.0 mi West 3.5 mph - N/A   Scattered Clouds
3:33 AM 33.8 °F 26.4 °F 30.2 °F 87% 29.87 in 10.0 mi WNW 9.2 mph - N/A   Mostly Cloudy
3:53 AM 33.8 °F 27.0 °F 30.2 °F 87% 29.87 in 10.0 mi WNW 8.1 mph - N/A   Mostly Cloudy
4:13 AM 33.8 °F 27.7 °F 30.2 °F 87% 29.87 in 10.0 mi WNW 6.9 mph - N/A   Mostly Cloudy
4:33 AM 33.8 °F 26.4 °F 30.2 °F 87% 29.88 in 10.0 mi WNW 9.2 mph - N/A   Mostly Cloudy
4:53 AM 33.8 °F 27.0 °F 30.2 °F 87% 29.89 in 10.0 mi WNW 8.1 mph - N/A   Mostly Cloudy
5:14 AM 33.8 °F 27.7 °F 30.2 °F 87% 29.90 in 10.0 mi WNW 6.9 mph - N/A   Mostly Cloudy
5:33 AM 32.0 °F 24.8 °F 28.4 °F 87% 29.90 in 10.0 mi WNW 8.1 mph - N/A   Scattered Clouds
5:53 AM 32.0 °F 24.8 °F 28.4 °F 87% 29.90 in 10.0 mi WNW 8.1 mph - N/A   Clear
6:13 AM 30.2 °F 22.6 °F 28.4 °F 93% 29.91 in 10.0 mi WNW 8.1 mph - N/A   Clear
6:33 AM 30.2 °F 20.8 °F 28.4 °F 93% 29.91 in 10.0 mi WNW 11.5 mph - N/A   Clear
6:53 AM 30.2 °F 21.3 °F 26.6 °F 86% 29.92 in 10.0 mi WNW 10.4 mph 17.3 mph N/A   Clear
7:33 AM 30.2 °F 22.6 °F 26.6 °F 86% 29.94 in 10.0 mi WNW 8.1 mph 16.1 mph N/A   Clear
7:53 AM 30.2 °F 22.6 °F 26.6 °F 86% 29.96 in 10.0 mi WNW 8.1 mph - N/A   Mostly Cloudy
8:13 AM 30.2 °F 21.3 °F 26.6 °F 86% 29.97 in 10.0 mi WNW 10.4 mph 17.3 mph N/A   Overcast
8:33 AM 30.2 °F 20.2 °F 26.6 °F 86% 29.97 in 10.0 mi WNW 12.7 mph 19.6 mph N/A   Overcast
8:53 AM 32.0 °F 23.0 °F 26.6 °F 80% 29.98 in 10.0 mi WNW 11.5 mph - N/A   Overcast
9:33 AM 32.0 °F 23.6 °F 26.6 °F 80% 30.00 in 10.0 mi WNW 10.4 mph 20.7 mph N/A   Scattered Clouds
9:53 AM 33.8 °F 24.8 °F 28.4 °F 81% 30.01 in 10.0 mi WNW 12.7 mph 18.4 mph N/A   Scattered Clouds
10:13 AM 35.6 °F 27.5 °F 28.4 °F 75% 30.01 in 10.0 mi WNW 11.5 mph 20.7 mph N/A   Scattered Clouds
10:33 AM 35.6 °F 27.5 °F 28.4 °F 75% 30.02 in 10.0 mi WNW 11.5 mph 18.4 mph N/A   Scattered Clouds
10:53 AM 35.6 °F 27.1 °F 28.4 °F 75% 30.03 in 10.0 mi WNW 12.7 mph 18.4 mph N/A   Mostly Cloudy
11:13 AM 35.6 °F 27.5 °F 28.4 °F 75% 30.04 in 10.0 mi WNW 11.5 mph 23.0 mph N/A   Mostly Cloudy
11:33 AM 37.4 °F 29.3 °F 26.6 °F 65% 30.05 in 10.0 mi WNW 12.7 mph 17.3 mph N/A   Mostly Cloudy
11:54 AM 37.4 °F 29.3 °F 26.6 °F 65% 30.06 in 10.0 mi WNW 12.7 mph 18.4 mph N/A   Mostly Cloudy
12:13 PM 37.4 °F 28.9 °F 24.8 °F 60% 30.07 in 10.0 mi NW 13.8 mph 19.6 mph N/A   Mostly Cloudy
12:33 PM 37.4 °F 29.3 °F 26.6 °F 65% 30.08 in 10.0 mi WNW 12.7 mph 18.4 mph N/A   Mostly Cloudy
12:53 PM 39.2 °F 31.6 °F 24.8 °F 56% 30.08 in 10.0 mi WNW 12.7 mph 16.1 mph N/A   Mostly Cloudy
1:13 PM 37.4 °F 30.3 °F 24.8 °F 60% 30.08 in 10.0 mi WNW 10.4 mph 17.3 mph N/A   Mostly Cloudy
1:34 PM 37.4 °F 28.5 °F 26.6 °F 65% 30.09 in 10.0 mi WNW 15.0 mph 19.6 mph N/A   Mostly Cloudy
1:53 PM 41.0 °F 34.3 °F 24.8 °F 53% 30.09 in 10.0 mi West 11.5 mph 19.6 mph N/A   Mostly Cloudy
2:14 PM 37.4 °F 29.8 °F 24.8 °F 60% 30.10 in 10.0 mi West 11.5 mph 19.6 mph N/A   Mostly Cloudy
2:33 PM 37.4 °F 30.8 °F 24.8 °F 60% 30.11 in 10.0 mi WNW 9.2 mph 17.3 mph N/A   Mostly Cloudy
3:13 PM 39.2 °F 32.5 °F 24.8 °F 56% 30.13 in 10.0 mi WNW 10.4 mph 16.1 mph N/A   Overcast
3:53 PM 37.4 °F 30.3 °F 26.6 °F 65% 30.14 in 10.0 mi West 10.4 mph 17.3 mph N/A   Mostly Cloudy
4:13 PM 39.2 °F 32.0 °F 24.8 °F 56% 30.14 in 10.0 mi WNW 11.5 mph 17.3 mph N/A   Mostly Cloudy
4:33 PM 39.2 °F 33.0 °F 26.6 °F 61% 30.15 in 10.0 mi West 9.2 mph - N/A   Scattered Clouds
5:13 PM 39.2 °F 30.8 °F 24.8 °F 56% 30.17 in 10.0 mi WNW 15.0 mph 23.0 mph N/A   Mostly Cloudy
5:33 PM 37.4 °F 28.9 °F 24.8 °F 60% 30.17 in 10.0 mi WNW 13.8 mph 18.4 mph N/A   Mostly Cloudy
6:33 PM 35.6 °F 28.6 °F 23.0 °F 60% 30.20 in 10.0 mi WNW 9.2 mph 17.3 mph N/A   Mostly Cloudy
6:53 PM 35.6 °F 29.2 °F 23.0 °F 60% 30.21 in 10.0 mi WNW 8.1 mph 18.4 mph N/A   Overcast
7:13 PM 35.6 °F 28.0 °F 24.8 °F 65% 30.22 in 10.0 mi WNW 10.4 mph - N/A   Overcast
7:33 PM 35.6 °F 29.9 °F 24.8 °F 65% 30.22 in 10.0 mi WNW 6.9 mph - N/A   Mostly Cloudy
8:13 PM 35.6 °F 31.7 °F 24.8 °F 65% 30.24 in 10.0 mi West 4.6 mph - N/A   Overcast
8:33 PM 33.8 °F 29.6 °F 24.8 °F 70% 30.24 in 10.0 mi West 4.6 mph - N/A   Scattered Clouds
8:53 PM 32.0 °F 26.4 °F 24.8 °F 75% 30.24 in 10.0 mi WNW 5.8 mph - N/A   Clear
9:13 PM 32.0 °F 27.5 °F 24.8 °F 75% 30.25 in 10.0 mi WNW 4.6 mph - N/A   Clear
9:33 PM 32.0 °F 26.4 °F 24.8 °F 75% 30.26 in 10.0 mi WNW 5.8 mph - N/A   Clear
10:13 PM 32.0 °F 25.6 °F 24.8 °F 75% 30.27 in 10.0 mi NW 6.9 mph - N/A   Clear
10:33 PM 30.2 °F 24.3 °F 24.8 °F 80% 30.28 in 10.0 mi NW 5.8 mph - N/A   Clear
10:53 PM 30.2 °F 25.4 °F 24.8 °F 80% 30.29 in 10.0 mi NW 4.6 mph - N/A   Clear
11:13 PM 30.2 °F 25.4 °F 24.8 °F 80% 30.29 in 10.0 mi NW 4.6 mph - N/A   Clear
11:33 PM 30.2 °F 25.4 °F 24.8 °F 80% 30.30 in 10.0 mi NW 4.6 mph - N/A   Clear